• En España
  • Lista de países
  • Para 7 días
  • Temperatura del agua
  • Mapa Satelital
  • El tiempo en el mapa
  • Informadores
  • user-avatar
    Iniciar sesión

    Tiempo cada hora Kandi

    Hoy, 19 Octubre, Viernes

    Tiempo Temperatura Precipitaciones Viento Presión Humedad
    00:00 +29°C° 0 mm 2 mps 736 mmHg 58%
    01:00 +29°C° 0 mm 2 mps 736 mmHg 61%
    02:00 +28°C° 0 mm 2 mps 735 mmHg 65%
    03:00 +28°C° 0 mm 2 mps 735 mmHg 68%
    04:00 +27°C° 0 mm 2 mps 736 mmHg 71%
    05:00 +27°C° 0 mm 2 mps 736 mmHg 74%
    06:00 +26°C° 0 mm 2 mps 736 mmHg 77%
    07:00 +29°C° 0 mm 2 mps 736 mmHg 68%
    08:00 +31°C° 0 mm 2 mps 737 mmHg 60%
    09:00 +34°C° 0 mm 2 mps 737 mmHg 51%
    10:00 +37°C° 0 mm 2 mps 737 mmHg 43%
    11:00 +39°C° 0 mm 2 mps 736 mmHg 34%
    12:00 +41°C° 0 mm 2 mps 736 mmHg 25%
    13:00 +41°C° 0 mm 2 mps 735 mmHg 24%
    14:00 +42°C° 0 mm 3 mps 734 mmHg 22%
    15:00 +42°C° 0 mm 3 mps 734 mmHg 20%
    16:00 +39°C° 0 mm 3 mps 734 mmHg 23%
    17:00 +37°C° 0 mm 2 mps 734 mmHg 26%
    18:00 +35°C° 0 mm 2 mps 734 mmHg 29%
    19:00 +33°C° 0 mm 1 mps 734 mmHg 31%
    20:00 +32°C° 0 mm 1 mps 735 mmHg 33%
    21:00 +31°C° 0 mm 1 mps 735 mmHg 35%
    22:00 +31°C° 0 mm 1 mps 735 mmHg 38%
    23:00 +30°C° 0 mm 1 mps 735 mmHg 40%

    Mañana, 20 Octubre, Sábado

    Tiempo Temperatura Precipitaciones Viento Presión Humedad
    00:00 +29°C° 0 mm 1 mps 735 mmHg 42%
    01:00 +29°C° 0 mm 1 mps 735 mmHg 44%
    02:00 +28°C° 0 mm 1 mps 734 mmHg 47%
    03:00 +28°C° 0 mm 1 mps 734 mmHg 49%
    04:00 +27°C° 0 mm 1 mps 734 mmHg 52%
    05:00 +27°C° 0 mm 1 mps 735 mmHg 54%
    06:00 +27°C° 0 mm 1 mps 735 mmHg 57%
    07:00 +30°C° 0 mm 1 mps 736 mmHg 50%
    08:00 +33°C° 0 mm 1 mps 736 mmHg 43%
    09:00 +36°C° 0 mm 1 mps 737 mmHg 37%
    10:00 +39°C° 0 mm 1 mps 737 mmHg 30%
    11:00 +41°C° 0 mm 2 mps 736 mmHg 24%
    12:00 +42°C° 0 mm 2 mps 736 mmHg 18%
    13:00 +43°C° 0 mm 3 mps 735 mmHg 17%
    14:00 +43°C° 0 mm 3 mps 734 mmHg 15%
    15:00 +43°C° 0 mm 4 mps 733 mmHg 14%
    16:00 +40°C° 0 mm 3 mps 733 mmHg 16%
    17:00 +37°C° 0 mm 2 mps 733 mmHg 19%
    18:00 +34°C° 0 mm 1 mps 733 mmHg 21%
    19:00 +33°C° 0 mm 1 mps 734 mmHg 23%
    20:00 +32°C° 0 mm 1 mps 735 mmHg 25%
    21:00 +31°C° 0 mm 1 mps 735 mmHg 27%
    22:00 +30°C° 0 mm 1 mps 735 mmHg 30%
    23:00 +29°C° 0 mm 1 mps 735 mmHg 32%

    Pasado mañana, 21 Octubre, Domingo

    Tiempo Temperatura Precipitaciones Viento Presión Humedad
    00:00 +29°C° 0 mm 1 mps 735 mmHg 35%
    01:00 +28°C° 0 mm 1 mps 735 mmHg 37%
    02:00 +28°C° 0 mm 1 mps 734 mmHg 39%
    03:00 +27°C° 0 mm 1 mps 734 mmHg 41%
    04:00 +27°C° 0 mm 1 mps 734 mmHg 44%
    05:00 +26°C° 0 mm 1 mps 735 mmHg 47%
    06:00 +26°C° 0 mm 1 mps 735 mmHg 51%
    07:00 +28°C° 0 mm 1 mps 735 mmHg 47%
    08:00 +31°C° 0 mm 1 mps 736 mmHg 43%
    09:00 +35°C° 0 mm 2 mps 737 mmHg 40%
    10:00 +38°C° 0 mm 2 mps 736 mmHg 32%
    11:00 +40°C° 0 mm 2 mps 735 mmHg 24%
    12:00 +42°C° 0 mm 2 mps 735 mmHg 17%
    13:00 +42°C° 0 mm 2 mps 734 mmHg 15%
    14:00 +44°C° 0 mm 3 mps 734 mmHg 14%
    15:00 +44°C° 0 mm 3 mps 733 mmHg 12%
    16:00 +40°C° 0 mm 2 mps 733 mmHg 14%
    17:00 +38°C° 0 mm 2 mps 733 mmHg 17%
    18:00 +34°C° 0 mm 1 mps 733 mmHg 19%
    19:00 +33°C° 0 mm 1 mps 734 mmHg 21%
    20:00 +32°C° 0 mm 1 mps 735 mmHg 24%
    21:00 +31°C° 0 mm 2 mps 735 mmHg 26%
    22:00 +30°C° 0 mm 2 mps 735 mmHg 29%
    23:00 +29°C° 0 mm 2 mps 735 mmHg 33%

    22 Octubre, Lunes

    Tiempo Temperatura Precipitaciones Viento Presión Humedad
    00:00 +29°C° 0 mm 2 mps 735 mmHg 37%
    01:00 +28°C° 0 mm 2 mps 735 mmHg 42%
    02:00 +28°C° 0 mm 2 mps 734 mmHg 48%
    03:00 +27°C° 0 mm 2 mps 734 mmHg 54%
    04:00 +27°C° 0 mm 2 mps 734 mmHg 59%
    05:00 +27°C° 0 mm 2 mps 735 mmHg 65%
    06:00 +26°C° 0 mm 2 mps 735 mmHg 70%
    07:00 +29°C° 0 mm 2 mps 736 mmHg 63%
    08:00 +31°C° 0 mm 2 mps 736 mmHg 55%
    09:00 +35°C° 0 mm 2 mps 737 mmHg 48%
    10:00 +38°C° 0 mm 2 mps 736 mmHg 40%
    11:00 +41°C° 0 mm 1 mps 736 mmHg 32%
    12:00 +42°C° 0 mm 0 mps 735 mmHg 23%
    13:00 +41°C° 0 mm 0 mps 734 mmHg 21%
    14:00 +43°C° 0 mm 1 mps 734 mmHg 19%
    15:00 +42°C° 0 mm 1 mps 733 mmHg 17%
    16:00 +40°C° 0 mm 1 mps 733 mmHg 20%
    17:00 +37°C° 0 mm 1 mps 733 mmHg 22%
    18:00 +35°C° 0 mm 1 mps 734 mmHg 25%
    19:00 +34°C° 0 mm 1 mps 734 mmHg 27%
    20:00 +33°C° 0 mm 1 mps 735 mmHg 29%
    21:00 +32°C° 0 mm 1 mps 735 mmHg 31%
    22:00 +31°C° 0 mm 1 mps 735 mmHg 33%
    23:00 +31°C° 0 mm 1 mps 735 mmHg 35%

    23 Octubre, Martes

    Tiempo Temperatura Precipitaciones Viento Presión Humedad
    00:00 +30°C° 0 mm 1 mps 735 mmHg 37%
    01:00 +30°C° 0 mm 2 mps 735 mmHg 41%
    02:00 +29°C° 0 mm 2 mps 735 mmHg 45%
    03:00 +29°C° 0 mm 3 mps 734 mmHg 49%
    04:00 +28°C° 0 mm 2 mps 735 mmHg 54%
    05:00 +28°C° 0 mm 2 mps 735 mmHg 60%
    06:00 +27°C° 0 mm 2 mps 736 mmHg 65%
    07:00 +30°C° 0 mm 2 mps 736 mmHg 57%
    08:00 +34°C° 0 mm 2 mps 736 mmHg 49%
    09:00 +37°C° 0 mm 2 mps 737 mmHg 42%
    10:00 +39°C° 0 mm 2 mps 736 mmHg 34%
    11:00 +42°C° 0 mm 1 mps 736 mmHg 27%
    12:00 +45°C° 0 mm 1 mps 735 mmHg 19%
    13:00 +44°C° 0 mm 1 mps 734 mmHg 17%
    14:00 +45°C° 0 mm 2 mps 734 mmHg 16%
    15:00 +43°C° 0 mm 2 mps 733 mmHg 14%
    16:00 +41°C° 0 mm 2 mps 733 mmHg 16%
    17:00 +39°C° 0 mm 2 mps 734 mmHg 19%
    18:00 +36°C° 0 mm 2 mps 734 mmHg 22%
    19:00 +34°C° 0 mm 1 mps 734 mmHg 24%
    20:00 +33°C° 0 mm 1 mps 735 mmHg 26%
    21:00 +32°C° 0 mm 1 mps 735 mmHg 28%
    22:00 +32°C° 0 mm 1 mps 735 mmHg 31%
    23:00 +31°C° 0 mm 2 mps 735 mmHg 35%

    24 Octubre, Miércoles

    Tiempo Temperatura Precipitaciones Viento Presión Humedad
    00:00 +30°C° 0 mm 2 mps 735 mmHg 38%
    01:00 +30°C° 0 mm 2 mps 735 mmHg 44%
    02:00 +29°C° 0 mm 2 mps 735 mmHg 50%
    03:00 +29°C° 0 mm 2 mps 734 mmHg 56%
    04:00 +29°C° 0 mm 2 mps 735 mmHg 61%
    05:00 +28°C° 0 mm 2 mps 735 mmHg 67%
    06:00 +27°C° 0 mm 2 mps 736 mmHg 72%
    07:00 +30°C° 0 mm 2 mps 736 mmHg 64%
    08:00 +32°C° 0 mm 2 mps 736 mmHg 57%
    09:00 +36°C° 0 mm 3 mps 737 mmHg 49%
    10:00 +38°C° 0 mm 2 mps 736 mmHg 42%
    11:00 +40°C° 0 mm 2 mps 736 mmHg 35%
    12:00 +42°C° 0 mm 1 mps 735 mmHg 28%
    13:00 +42°C° 0 mm 1 mps 734 mmHg 25%
    14:00 +42°C° 0 mm 1 mps 734 mmHg 22%
    15:00 +42°C° 0 mm 1 mps 733 mmHg 20%
    16:00 +40°C° 0 mm 1 mps 733 mmHg 23%
    17:00 +37°C° 0 mm 1 mps 733 mmHg 25%
    18:00 +35°C° 0 mm 1 mps 734 mmHg 28%
    19:00 +34°C° 0 mm 1 mps 734 mmHg 31%
    20:00 +33°C° 0 mm 1 mps 735 mmHg 34%
    21:00 +32°C° 0 mm 2 mps 735 mmHg 37%
    22:00 +32°C° 0 mm 2 mps 735 mmHg 43%
    23:00 +31°C° 0 mm 2 mps 735 mmHg 49%
    Mostrar más